Location: Krakow
(50.0212°N, 19.9423°E)
Time: 14:14:40
(UTC+02:00)

NOAA 18 - Pass Details

Date: 28 April 2025
Orbit: 837 x 857 km, 98.8° (Epoch: 14 May)

Event Time Altitude Azimuth Distance (km) Brightness Sun altitude
Exits shadow 21:10:40 11° 102° (ESE) 2,414 7.0 -11.2°
Maximum altitude 21:14:30 22° 56° (NE) 1,801 6.8 -11.7°
Drops below altitude 10° 21:18:37 10° 8° (N) 2,503 8.1 -12.2°
Sets 21:21:29 0° 354° (N) 3,443 9.2 -12.5°
